Printer-friendly version

IAU Minor Planet Center

Minor Planet Center

MPEC 2007-P56 : 2007 PV27

The following Minor Planet Electronic Circular may be linked-to from your own Web pages, but must not otherwise be redistributed electronically.


Read MPEC 2007-P55 Read MPEC 2007-P57


M.P.E.C. 2007-P56                                Issued 2007 Aug. 15, 11:30 UT

     The Minor Planet Electronic Circulars contain information on unusual
         minor planets and routine data on comets.  They are published
   on behalf of Commission 20 of the International Astronomical Union by the
          Minor Planet Center, Smithsonian Astrophysical Observatory,
                          Cambridge, MA 02138, U.S.A.

             Prepared using the Tamkin Foundation Computer Network

                              MPC@CFA.HARVARD.EDU
          URL http://www.cfa.harvard.edu/iau/mpc.html  ISSN 1523-6714

                                   2007 PV27

Observations:
     K07P27V* C2007 08 14.56587 21 26 18.70 -24 58 51.9          18.6 V EP056E12
     K07P27V  C2007 08 14.57733 21 26 14.74 -24 58 20.9          18.4 V EP056E12
     K07P27V  C2007 08 14.59971 21 26 07.00 -24 57 20.3          18.4 V EP056E12
     K07P27V  C2007 08 14.68237 21 25 38.44 -24 53 34.7          18.4 R EP056E12
     K07P27V  C2007 08 14.75296 21 25 14.19 -24 50 18.7          18.5 R EP056E12
     K07P27V  C2007 08 14.97005 21 24 02.77 -24 40 31.8          18.7 R EP056194
     K07P27V  C2007 08 14.97141 21 24 02.31 -24 40 28.1          18.6 R EP056194
     K07P27V  C2007 08 14.97310 21 24 01.69 -24 40 23.4          18.4 R EP056194
     K07P27V  C2007 08 14.97480 21 24 01.12 -24 40 18.5          18.5 R EP056194
     K07P27V  C2007 08 14.98813 21 23 56.84 -24 40 12.0                 EP056204
     K07P27V  C2007 08 14.99233 21 23 55.38 -24 40 00.4          18.3 R EP056204
     K07P27V  C2007 08 14.99653 21 23 53.92 -24 39 48.7                 EP056204
     K07P27V %C2007 08 15.21142 21 22 42.50 -24 29 45.7          18.4 R EP056H06
     K07P27V %C2007 08 15.23196 21 22 35.28 -24 28 48.0          18.5 R EP056H06
     K07P27V  C2007 08 15.31729 21 22 06.90 -24 24 21.8          18.7 V EP056F84
     K07P27V  C2007 08 15.32913 21 22 02.68 -24 23 48.7          18.2 V EP056F84
     K07P27V  C2007 08 15.34583 21 21 57.49 -24 22 42.5          18.7 R EP056474
     K07P27V  C2007 08 15.34745 21 21 56.94 -24 22 38.0                 EP056474
     K07P27V  C2007 08 15.34931 21 21 56.27 -24 22 32.7          18.6 R EP056474
     K07P27V  C2007 08 15.35347 21 21 54.83 -24 22 21.1          18.5 R EP056474
     K07P27V  C2007 08 15.35961 21 21 52.72 -24 22 04.2          18.5 R EP056474

Observer details:
194 Tivoli.  Observers G. Lehmann, J. Lorenz.  0.4-m f/8 reflector + CCD.
204 Schiaparelli Observatory.  Observer L. Buzzi.  0.60-m f/4.64 reflector
    + CCD.
474 Mount John Observatory, Lake Tekapo.  Observer A. C. Gilmore.  1.0-m f/7.7
    reflector + CCD.
E12 Siding Spring Survey.  Observer R. H. McNaught.  Measurers E. C. Beshore,
    A. Boattini, G. J. Garradd, A. R. Gibbs, A. D. Grauer, R. E. Hill,
    R. A. Kowalski, S. M. Larson, R. H. McNaught.  0.5-m Uppsala Schmidt + CCD.
F84 Hibiscus Observatory, Punaauia.  Observer J. C. Pelle.  0.35-m f/3.88
    Schmidt-Cassegrain + 1392x1040 CCD.
H06 RAS Observatory, Mayhill.  Observers E. Guido, G. Sostero.  0.25-m f/3.4
    reflector + CCD.

Orbital elements:
2007 PV27                                           PHA, Earth MOID = 0.0010 AU
Epoch 2007 Oct. 27.0 TT = JDT 2454400.5                 MPC
M 341.06526              (2000.0)            P               Q
n   0.68545830     Peri.  107.57341     +0.25734731     -0.93567196
a   1.2739392      Node   324.51868     +0.65075882     +0.35251041
e   0.3714251      Incl.   24.57926     +0.71434258     +0.01594950
P   1.44           H   20.5           G   0.15           U   8
Residuals in seconds of arc
070814 E12  0.2-  0.1-    070814 194  0.1-  0.2+    070815 F84  0.2+  0.2-
070814 E12  0.1-  0.0     070814 194  0.2+  0.4+    070815 F84  0.4-  0.1-
070814 E12  0.0   0.1+    070814 204  0.0   0.3+    070815 474  0.1+  0.1+
070814 E12  0.3+  0.4-    070814 204  0.0   0.3+    070815 474  0.2+  0.0
070814 E12  0.2-  0.5-    070814 204  0.0   0.3+    070815 474  0.1-  0.2+
070814 194  0.0   0.3+    070815 H06  0.1+  0.9-    070815 474  0.2-  0.2+
070814 194  0.3+  0.2+    070815 H06  0.1-  0.3-    070815 474  0.0   0.0

Ephemeris:
2007 PV27                a,e,i = 1.27, 0.37, 25                  q = 0.8008
Date    TT    R. A. (2000) Decl.     Delta      r     Elong.  Phase     V
2007 08 08    21 59.04   -28 54.9    0.311    1.315   163.1    13.0    19.3
2007 08 18    21 06.41   -22 06.8    0.252    1.259   166.8    10.5    18.7
2007 08 28    20 03.44   -10 34.2    0.223    1.201   145.3    28.6    18.9
2007 09 07    19 05.52   +02 55.0    0.227    1.141   120.6    49.5    19.4
2007 09 17    18 21.28   +14 17.2    0.254    1.080   100.2    66.4    20.0
2007 09 27    17 48.63   +22 42.5    0.291    1.019    85.0    78.5    20.6
2007 10 07    17 21.62   +28 55.5    0.328    0.961    73.8    87.1    21.1
2007 10 17    16 55.06   +33 26.6    0.361    0.908    65.3    93.5    21.4
2007 10 27    16 25.37   +36 12.3    0.389    0.862    59.1    98.1    21.7
2007 11 06    15 52.23   +36 40.8    0.413    0.827    55.0   100.9    21.8
2007 11 16    15 19.36   +34 22.5    0.434    0.806    52.9   101.6    21.9
2007 11 26    14 52.01   +29 16.7    0.453    0.801    53.1   100.1    21.9
2007 12 06    14 33.58   +21 58.1    0.470    0.814    55.1    96.6    21.9
2007 12 16    14 23.93   +13 19.2    0.487    0.842    58.7    91.6    21.8
2007 12 26    14 20.97   +04 03.9    0.501    0.882    63.5    86.0    21.7
2008 01 05    14 22.36   -05 19.1    0.512    0.932    69.1    80.1    21.7
2008 01 15    14 25.78   -14 34.2    0.520    0.988    75.2    74.2    21.6
2008 01 25    14 29.22   -23 34.3    0.525    1.048    81.8    68.4    21.6
2008 02 04    14 30.66   -32 15.1    0.529    1.109    88.8    62.7    21.6
2008 02 14    14 27.54   -40 29.6    0.533    1.169    95.9    57.1    21.5
2008 02 24    14 16.71   -48 03.0    0.539    1.229   103.0    51.7    21.5
2008 03 05    13 54.36   -54 29.0    0.548    1.286   109.8    46.5    21.5
2008 03 15    13 17.82   -59 05.2    0.564    1.341   115.9    41.9    21.5
2008 03 25    12 30.86   -61 10.1    0.588    1.392   120.6    38.1    21.6
2008 04 04    11 45.38   -60 36.4    0.622    1.441   123.6    35.3    21.7
2008 04 14    11 12.50   -58 05.8    0.665    1.486   124.7    33.7    21.9
2008 04 24    10 54.69   -54 39.1    0.718    1.527   123.9    33.1    22.1

Timothy B. Spahr             (C) Copyright 2007 MPC           M.P.E.C. 2007-P56

Read MPEC 2007-P55 Read MPEC 2007-P57


Our Web policy. Index to the CBAT/MPC/ICQ pages.


Valid HTML 4.01!